Flag for Faroe Islands Weather past 2 weeks in Tórshavn, Faroe Islands, Faroe Islands

Now
43 °F

Sprinkles. Partly sunny.


Feels Like: 34 °F
Forecast: 42 / 49 °F
Wind: 18 mph from West

Location: Soervaag / Vagar

Current Time: May 26, 2015 at 7:45:56 AM

Latest Report: May 26, 2015 at 7:20 AM


Visibility: N/A

Pressure: 29.89 "Hg

Humidity: 81%

Dew point: 37 °F

Location of TórshavnLocation

Historic Weather in Tórshavn — Graph

°F

Tórshavn temperature yesterday

Maximum temperature yesterday: 50 °F (at 12:20 PM)
Minimum temperature yesterday: 43 °F (at 12:50 AM)
Average temperature yesterday: 46 °F

Past Weeks' High & Low Weather Summary

 TemperatureHumidityPressure
High50 °F (May 11, 12:20 PM)100% (May 11, 7:20 AM)30.21 "Hg (May 11, 7:20 AM)
Low32 °F (May 14, 1:20 AM)57% (May 13, 10:51 AM)29.15 "Hg (May 12, 3:50 AM)
Average43 °F82%29.71 "Hg
* Reported May 11 6:20 AM — May 26 6:50 AM, Tórshavn, Weather by CustomWeather, © 2015

Note: Actual official high and low records may vary slightly from our data, if they occured in-between our weather recording intervals... More about our weather records

Advertising

Tórshavn weather history for previous 24 hours

 ConditionsComfort  
Time TempWeatherWind HumidityBarometerVisibility
6:50 AM
Tue, May 26
45 °FPartly sunny.18 mph76%29.89 "HgN/A
6:20 AM45 °FPartly sunny.16 mph81%29.89 "HgN/A
5:50 AM43 °FSprinkles. Partly sunny.17 mph87%29.89 "HgN/A
5:20 AM45 °FPartly sunny.13 mph81%29.89 "HgN/A
4:50 AM43 °FSprinkles. Passing clouds.22 mph87%29.89 "Hg6 mi
4:20 AM45 °FDrizzle. Overcast.16 mph81%29.86 "HgN/A
3:50 AM45 °FPassing clouds.16 mph87%29.86 "HgN/A
3:20 AM45 °FPassing clouds.16 mph87%29.86 "HgN/A
2:50 AM45 °FPassing clouds.10 mph87%29.89 "HgN/A
2:20 AM45 °FOvercast.17 mph87%29.86 "HgN/A
1:50 AM45 °FPassing clouds.14 mph87%29.89 "HgN/A
1:20 AM45 °FSprinkles. Passing clouds.17 mph87%29.86 "Hg3 mi
12:50 AM45 °FPassing clouds.14 mph93%29.86 "Hg4 mi
12:20 AM45 °FDrizzle. Fog.3 mph100%29.89 "Hg2 mi
11:50 PM
Mon, May 25
45 °FSprinkles. Fog.6 mph93%29.89 "Hg2 mi
11:20 PM45 °FSprinkles. Low clouds.3 mph93%29.89 "HgN/A
10:50 PM45 °FPartly sunny.5 mph87%29.89 "HgN/A
10:20 PM45 °FPartly sunny.7 mph87%29.92 "HgN/A
9:50 PM45 °FPartly sunny.6 mph87%29.92 "HgN/A
9:20 PM45 °FOvercast.7 mph81%29.92 "HgN/A
8:50 PM45 °FPartly sunny.12 mph81%29.92 "HgN/A
8:20 PM46 °FOvercast.12 mph76%29.92 "HgN/A
7:50 PM46 °FPartly sunny.10 mph76%29.92 "HgN/A
6:50 PM46 °FPartly sunny.14 mph76%29.92 "HgN/A
5:50 PM48 °FPartly sunny.17 mph76%29.92 "HgN/A
4:50 PM48 °FPartly sunny.16 mph76%29.92 "HgN/A
4:06 PM48 °FPartly sunny.15 mph82%29.95 "HgN/A
3:20 PM48 °FScattered clouds.14 mph82%29.92 "HgN/A
2:50 PM48 °FPartly sunny.15 mph82%29.92 "HgN/A
2:20 PM50 °FPassing clouds.13 mph82%29.92 "HgN/A
1:50 PM48 °FPassing clouds.14 mph87%29.92 "HgN/A
1:20 PM48 °FScattered clouds.15 mph87%29.92 "HgN/A
12:50 PM46 °FScattered clouds.13 mph87%29.92 "HgN/A
12:20 PM50 °FPartly sunny.12 mph76%29.89 "HgN/A
11:50 AM48 °FPartly sunny.13 mph87%29.89 "HgN/A
11:20 AM48 °FPartly sunny.10 mph87%29.89 "HgN/A
10:50 AM48 °FPartly sunny.13 mph87%29.89 "HgN/A
10:20 AM48 °FPartly sunny.12 mph87%29.86 "HgN/A
9:50 AM46 °FPartly sunny.9 mph93%29.86 "HgN/A
9:20 AM46 °FPartly sunny.10 mph93%29.86 "HgN/A
8:50 AM46 °FPartly sunny.10 mph87%29.86 "HgN/A
8:20 AM46 °FLight rain. Partly sunny.6 mph87%29.83 "HgN/A
7:50 AM46 °FBroken clouds.10 mph87%29.83 "HgN/A
7:20 AM46 °FScattered clouds.6 mph82%29.83 "HgN/A
Weather by CustomWeather, © 2015

See weather overviewHow to use our weather pages